Weather History for KDHT - November, 2013

Change the Weather History Date:

Tuesday, November 26, 2013

  Actual Average Record
Temperature  
Mean Temperature 34 °F 39 °F  
Max Temperature 45 °F 54 °F 81 °F (1977)
Min Temperature 23 °F 24 °F -2 °F (1952)
Degree Days  
Heating Degree Days 31 26  
Month to date heating degree days 549 526  
Since 1 July heating degree days 852 886  
Cooling Degree Days 0 0  
Month to date cooling degree days 0 0  
Year to date cooling degree days 1576 1138  
Moisture  
Dew Point 25 °F    
Average Humidity 73    
Maximum Humidity 92    
Minimum Humidity 53    
Precipitation  
Precipitation 0.00 in 0.02 in 0.07 in (1952)
Month to date precipitation 0.60 0.53  
Year to date precipitation 7.38 17.00  
Snow  
Snow 0.00 in 0.00 in 1.40 in (1952)
Month to date snowfall 3.0 1.0  
Since 1 July snowfall 3.0 1.6  
Since 1 September snowfall 3.0 1.6  
Snow Depth 2.00 in    
Sea Level Pressure  
Sea Level Pressure 30.39 in    
Wind  
Wind Speed 9 mph (NNW)    
Max Wind Speed 18 mph    
Max Gust Speed 22 mph    
Visibility 10 miles    
Events      
T = Trace of Precipitation, MM = Missing Value Source: NWS Daily Summary

Daily Weather History Graph

Daily Weather History Graph

Search for Another Location

Airport or City:

Trip Planner

Search our weather history database for the weather conditions in past years. The results will help you decide how hot, cold, wet, or windy it might be!

Date:

Astronomy

Nov. 26, 2013 Rise Set
Actual Time 7:37 AM CST 5:37 PM CST
Civil Twilight 7:10 AM CST 6:05 PM CST
Nautical Twilight 6:38 AM CST 6:36 PM CST
Astronomical Twilight 6:07 AM CST 7:07 PM CST
Moon 12:55 AM CST (11/26) 1:34 PM CST (11/26)
Length of Visible Light 10h 55m
Length of Day
9h 59m
Last Quarter, 41% of the Moon is Illuminated
Nov 26
Last Quarter
Dec 2
New
Dec 9
First Quarter
Dec 17
Full
Dec 25
Last Quarter

Hourly Weather History & Observations

Time (CST) Temp. Windchill Dew Point Humidity Pressure Visibility Wind Dir Wind Speed Gust Speed Precip Events Conditions
12:53 AM 32.0 °F 23.0 °F 23.0 °F 69% 30.30 in 10.0 mi North 11.5 mph - N/A   Clear
1:53 AM 32.0 °F 23.0 °F 24.1 °F 73% 30.31 in 10.0 mi NNW 11.5 mph - N/A   Clear
2:53 AM 30.0 °F 21.1 °F 23.0 °F 75% 30.34 in 10.0 mi NNW 10.4 mph - N/A   Clear
3:53 AM 28.9 °F 20.4 °F 21.9 °F 75% 30.34 in 10.0 mi NNW 9.2 mph - N/A   Clear
4:53 AM 27.0 °F 18.7 °F 19.9 °F 75% 30.36 in 10.0 mi North 8.1 mph - N/A   Clear
5:53 AM 25.0 °F 16.3 °F 19.0 °F 78% 30.38 in 10.0 mi NNW 8.1 mph - N/A   Clear
6:53 AM 24.1 °F 13.7 °F 18.0 °F 77% 30.40 in 10.0 mi NNW 10.4 mph - N/A   Clear
7:53 AM 24.1 °F 15.2 °F 18.0 °F 77% 30.41 in 10.0 mi NW 8.1 mph - N/A   Clear
8:53 AM 27.0 °F 18.0 °F 19.9 °F 75% 30.41 in 10.0 mi NW 9.2 mph - N/A   Clear
9:53 AM 37.0 °F 30.4 °F 25.0 °F 62% 30.39 in 10.0 mi North 9.2 mph - N/A   Clear
10:53 AM 37.0 °F 27.7 °F 24.1 °F 59% 30.41 in 10.0 mi North 16.1 mph - N/A   Clear
11:53 AM 37.9 °F 30.0 °F 27.0 °F 65% 30.43 in 10.0 mi North 12.7 mph - N/A   Clear
12:53 PM 39.9 °F 32.5 °F 28.0 °F 63% 30.40 in 10.0 mi North 12.7 mph - N/A   Clear
1:53 PM 43.0 °F 36.4 °F 28.9 °F 58% 30.38 in 10.0 mi North 12.7 mph - N/A   Clear
2:53 PM 45.0 °F 38.9 °F 28.0 °F 52% 30.36 in 10.0 mi North 12.7 mph - N/A   Clear
3:53 PM 45.0 °F 40.1 °F 28.9 °F 53% 30.37 in 10.0 mi North 9.2 mph - N/A   Clear
4:53 PM 44.1 °F 40.8 °F 28.9 °F 55% 30.38 in 10.0 mi NNE 5.8 mph - N/A   Clear
5:53 PM 37.0 °F 32.4 °F 28.0 °F 70% 30.41 in 10.0 mi ENE 5.8 mph - N/A   Clear
6:53 PM 34.0 °F - 28.0 °F 79% 30.43 in 10.0 mi Calm Calm - N/A   Clear
7:53 PM 30.9 °F 25.2 °F 26.1 °F 82% 30.44 in 10.0 mi WSW 5.8 mph - N/A   Clear
8:53 PM 32.0 °F 27.5 °F 28.0 °F 85% 30.43 in 10.0 mi WSW 4.6 mph - N/A   Clear
9:53 PM 27.0 °F 20.5 °F 24.1 °F 89% 30.42 in 10.0 mi SW 5.8 mph - N/A   Clear
10:53 PM 30.0 °F 24.1 °F 26.1 °F 85% 30.42 in 10.0 mi WNW 5.8 mph - N/A   Clear
11:53 PM 28.9 °F 23.9 °F 24.1 °F 82% 30.41 in 10.0 mi WNW 4.6 mph - N/A   Clear